Weather History for KBPT - October, 2012

Change the Weather History Date:

Monday, October 22, 2012

  Actual Average Record
Temperature  
Mean Temperature 76 °F 69 °F  
Max Temperature 84 °F 79 °F 92 °F (1939)
Min Temperature 68 °F 59 °F 42 °F (1952)
Degree Days  
Heating Degree Days 0 1  
Month to date heating degree days 4 12  
Since 1 July heating degree days 4 13  
Cooling Degree Days 11 5  
Month to date cooling degree days 162 164  
Year to date cooling degree days 3036 2750  
Growing Degree Days 26 (Base 50)    
Moisture  
Dew Point 69 °F    
Average Humidity 80    
Maximum Humidity 97    
Minimum Humidity 63    
Precipitation  
Precipitation 0.00 in 0.19 in 2.35 in (2009)
Month to date precipitation 1.32 4.03  
Year to date precipitation 57.10 49.23  
Snow  
Snow 0.00 in 0.00 in 0.00 in ()
Month to date snowfall 0.0 0.0  
Since 1 July snowfall 0.0 0.0  
Since 1 September snowfall 0.0 0.0  
Snow Depth 0.00 in    
Sea Level Pressure  
Sea Level Pressure 30.02 in    
Wind  
Wind Speed 9 mph (SE)    
Max Wind Speed 18 mph    
Max Gust Speed 29 mph    
Visibility 10 miles    
Events      
T = Trace of Precipitation, MM = Missing Value Source: NWS Daily Summary

Daily Weather History Graph

Daily Weather History Graph

Search for Another Location

Airport or City:

Trip Planner

Search our weather history database for the weather conditions in past years. The results will help you decide how hot, cold, wet, or windy it might be!

Date:

Astronomy

Oct. 22, 2012 Rise Set
Actual Time 7:22 AM CDT 6:37 PM CDT
Civil Twilight 6:58 AM CDT 7:01 PM CDT
Nautical Twilight 6:30 AM CDT 7:29 PM CDT
Astronomical Twilight 6:02 AM CDT 7:57 PM CDT
Moon 2:18 PM CDT (10/22) 12:40 AM CDT (10/22)
Length of Visible Light 12h 03m
Length of Day
11h 14m
First Quarter, 56% of the Moon is Illuminated
Oct 22
First Quarter
Oct 29
Full
Nov 6
Last Quarter
Nov 13
New
Nov 20
First Quarter

Hourly Weather History & Observations

Time (CDT) Temp. Heat Index Dew Point Humidity Pressure Visibility Wind Dir Wind Speed Gust Speed Precip Events Conditions
12:33 AM 73.4 °F - 69.8 °F 88% 30.00 in 10.0 mi SE 8.1 mph - N/A   Mostly Cloudy
12:53 AM 73.0 °F - 70.0 °F 90% 30.00 in 10.0 mi ESE 8.1 mph - N/A   Mostly Cloudy
1:03 AM 73.4 °F - 69.8 °F 88% 29.99 in 10.0 mi ESE 6.9 mph - N/A   Scattered Clouds
1:53 AM 72.0 °F - 69.1 °F 91% 30.00 in 10.0 mi ESE 6.9 mph - N/A   Scattered Clouds
2:35 AM 73.4 °F - 69.8 °F 88% 30.00 in 10.0 mi SSE 6.9 mph - N/A   Mostly Cloudy
2:53 AM 73.0 °F - 69.1 °F 87% 29.99 in 10.0 mi SE 8.1 mph - N/A   Mostly Cloudy
3:05 AM 73.4 °F - 69.8 °F 88% 29.99 in 10.0 mi SE 6.9 mph - N/A   Scattered Clouds
3:53 AM 72.0 °F - 69.1 °F 91% 29.99 in 10.0 mi ESE 5.8 mph - N/A   Partly Cloudy
4:53 AM 71.1 °F - 68.0 °F 90% 29.99 in 10.0 mi ESE 8.1 mph - N/A   Partly Cloudy
5:24 AM 71.6 °F - 68.0 °F 88% 30.00 in 10.0 mi ESE 5.8 mph - N/A   Mostly Cloudy
5:53 AM 71.1 °F - 68.0 °F 90% 30.01 in 10.0 mi ESE 6.9 mph - N/A   Mostly Cloudy
6:53 AM 72.0 °F - 69.1 °F 91% 30.02 in 10.0 mi ESE 8.1 mph - N/A   Mostly Cloudy
7:53 AM 72.0 °F - 69.1 °F 91% 30.04 in 10.0 mi ESE 6.9 mph - N/A   Mostly Cloudy
8:00 AM 73.4 °F - 69.8 °F 88% 30.03 in 10.0 mi SE 5.8 mph - N/A   Partly Cloudy
8:53 AM 75.9 °F - 70.0 °F 82% 30.04 in 10.0 mi ESE 10.4 mph - N/A   Partly Cloudy
9:53 AM 79.0 °F - 70.0 °F 74% 30.05 in 10.0 mi ESE 13.8 mph - N/A   Partly Cloudy
10:24 AM 80.6 °F 83.9 °F 69.8 °F 70% 30.06 in 10.0 mi SE 16.1 mph - N/A   Mostly Cloudy
10:40 AM 80.6 °F 83.9 °F 69.8 °F 70% 30.06 in 10.0 mi SSE 16.1 mph - N/A   Scattered Clouds
10:53 AM 81.0 °F 83.8 °F 68.0 °F 65% 30.06 in 10.0 mi SSE 13.8 mph 20.7 mph N/A   Scattered Clouds
11:10 AM 80.6 °F 83.9 °F 69.8 °F 70% 30.06 in 10.0 mi SE 13.8 mph - N/A   Mostly Cloudy
11:39 AM 80.6 °F 83.2 °F 68.0 °F 65% 30.06 in 10.0 mi SE 15.0 mph 20.7 mph N/A   Scattered Clouds
11:53 AM 82.9 °F 85.8 °F 68.0 °F 60% 30.06 in 10.0 mi SSE 12.7 mph 19.6 mph N/A   Scattered Clouds
12:53 PM 82.0 °F 84.9 °F 68.0 °F 62% 30.04 in 10.0 mi SE 12.7 mph - N/A   Scattered Clouds
1:53 PM 81.0 °F 83.8 °F 68.0 °F 65% 30.02 in 10.0 mi SE 9.2 mph - N/A   Scattered Clouds
2:53 PM 80.1 °F 82.7 °F 68.0 °F 67% 30.00 in 10.0 mi SE 12.7 mph 18.4 mph N/A   Scattered Clouds
3:53 PM 81.0 °F 83.8 °F 68.0 °F 65% 30.01 in 10.0 mi ESE 12.7 mph - N/A   Partly Cloudy
4:53 PM 78.1 °F - 68.0 °F 71% 30.00 in 10.0 mi SE 12.7 mph - N/A   Scattered Clouds
5:53 PM 77.0 °F - 68.0 °F 74% 30.00 in 10.0 mi ESE 9.2 mph - N/A   Scattered Clouds
6:53 PM 73.9 °F - 69.1 °F 85% 30.01 in 10.0 mi ESE 9.2 mph - N/A   Partly Cloudy
7:53 PM 72.0 °F - 69.1 °F 91% 30.02 in 10.0 mi ESE 6.9 mph - N/A   Partly Cloudy
8:53 PM 71.1 °F - 69.1 °F 93% 30.02 in 10.0 mi ESE 6.9 mph - N/A   Clear
9:53 PM 70.0 °F - 68.0 °F 93% 30.02 in 10.0 mi SSE 5.8 mph - N/A   Clear
10:53 PM 69.1 °F - 66.9 °F 93% 30.03 in 10.0 mi Calm Calm - N/A   Partly Cloudy
11:53 PM 70.0 °F - 68.0 °F 93% 30.01 in 10.0 mi ESE 6.9 mph - N/A   Clear